Hourly Data Report for May 20, 2020

All times are specified in Local Standard Time (LST). Add 1 hour to adjust for Daylight Saving Time where and when it is observed.

OTTAWA INTL A
ONTARIO
Current Station Operator: NAVCAN

45°19'00.000" N
75°40'00.000" W
114.90 m
6106001
71628
YOW

Download Data

Hourly Data (May 2020)
Hourly Data Report for May 20, 2020
TIME Temp Definition
°C
Dew Point Definition
°C
Rel Hum Definition
%
Wind Dir Definition
10's deg

Wind Spd Definition
km/h
Visibility Definition
km
Stn Press Definition
kPa
Hmdx Definition


Wind Chill Definition


Weather Definition


00:00 10.3 1.0 52 7 14 24.1 101.42     LegendNANA
01:00 9.2 0.5 54 7 4 24.1 101.48     Clear
02:00 7.1 0.7 64 6 11 24.1 101.48     LegendNANA
03:00 8.7 0.4 56 6 13 24.1 101.47     LegendNANA
04:00 6.0 -0.9 61 10 7 24.1 101.53     Clear
05:00 7.2 0.0 60 7 8 24.1 101.60     LegendNANA
06:00 10.7 0.5 49 8 11 24.1 101.66     LegendNANA
07:00 13.6 2.8 48 11 8 24.1 101.69     Clear
08:00 15.7 1.7 39 20 13 24.1 101.72     LegendNANA
09:00 17.5 2.2 36 23 10 24.1 101.72     LegendNANA
10:00 19.1 3.5 35 29 11 24.1 101.70     Clear
11:00 20.6 2.2 29 29 13 24.1 101.67     LegendNANA
12:00 21.5 3.6 31 21 9 24.1 101.62     LegendNANA
13:00 22.5 2.1 26 13 8 24.1 101.54     Clear
14:00 22.9 3.3 27 23 10 24.1 101.48     LegendNANA
15:00 23.5 0.6 22 27 14 24.1 101.40     LegendNANA
16:00 23.3 1.0 23 12 7 24.1 101.31     Mostly Cloudy
17:00 23.3 -0.4 21 21 4 24.1 101.26     LegendNANA
18:00 22.8 -0.3 21 18 5 24.1 101.20     LegendNANA
19:00 21.2 2.2 28 15 4 24.1 101.20     Mostly Cloudy
20:00 19.2 0.3 28 25 3 24.1 101.21     LegendNANA
21:00 15.3 1.6 39 22 4 24.1 101.25     LegendNANA
22:00 14.4 1.5 41 22 3 24.1 101.23     Clear
23:00 13.2 2.8 49 20 8 24.1 101.22     LegendNANA

Notes on Data Quality.

Legend

  • E = Estimated
  • M = Missing
  • NA = Not Available*
  • [empty] = Indicates an unobserved value
Date modified: